Weather History for KPBI - August, 2014

Change the Weather History Date:

Sunday, August 3, 2014

  Actual Average Record
Temperature  
Mean Temperature 82 °F 83 °F  
Max Temperature 89 °F 91 °F 96 °F (1958)
Min Temperature 74 °F 76 °F 65 °F (1919)
Degree Days  
Heating Degree Days 0 0  
Month to date heating degree days 0 0  
Since 1 June heating degree days 0 0  
Since 1 July heating degree days 0 0  
Cooling Degree Days 17 18  
Month to date cooling degree days 56 54  
Year to date cooling degree days 2460 2202  
Since 1 June cooling degree days 1108 1093  
Growing Degree Days 31 (Base 50)    
Moisture  
Dew Point 75 °F    
Average Humidity 81    
Maximum Humidity 93    
Minimum Humidity 68    
Precipitation  
Precipitation 1.54 in 0.22 in 2.84 in (1933)
Month to date precipitation 1.55 0.66  
Year to date precipitation 34.98 33.43  
Snow  
Snow 0.00 in - - ()
Month to date snowfall 0.0  
Since 1 June snowfall 0.0  
Since 1 July snowfall 0.0  
Snow Depth 0.00 in    
Sea Level Pressure  
Sea Level Pressure 29.90 in    
Wind  
Wind Speed 7 mph (South)    
Max Wind Speed 17 mph    
Max Gust Speed 22 mph    
Visibility 9 miles    
Events Rain , Thunderstorm    
T = Trace of Precipitation, MM = Missing Value Source: NWS Daily Summary

Daily Weather History Graph

Daily Weather History Graph

Search for Another Location

Airport or City:

Trip Planner

Search our weather history database for the weather conditions in past years. The results will help you decide how hot, cold, wet, or windy it might be!

Date:

Astronomy

Aug. 03, 2014 Rise Set
Actual Time 6:46 AM EDT 8:06 PM EDT
Civil Twilight 6:21 AM EDT 8:31 PM EDT
Nautical Twilight 5:51 AM EDT 9:00 PM EDT
Astronomical Twilight 5:21 AM EDT 9:31 PM EDT
Moon 1:21 PM EDT (8/3) 12:06 AM EDT (8/3)
Length of Visible Light 14h 10m
Length of Day
13h 20m
Waxing Crescent, 46% of the Moon is Illuminated
Aug 3
Waxing Crescent
Aug 3
First Quarter
Aug 10
Full
Aug 17
Last Quarter
Aug 25
New

Hourly Weather History & Observations

Time (EDT) Temp. Heat Index Dew Point Humidity Pressure Visibility Wind Dir Wind Speed Gust Speed Precip Events Conditions
12:53 AM 80.1 °F 85.8 °F 77.0 °F 90% 29.92 in 10.0 mi Calm Calm - N/A   Mostly Cloudy
1:53 AM 80.1 °F 85.8 °F 77.0 °F 90% 29.91 in 10.0 mi WNW 4.6 mph - N/A   Scattered Clouds
2:53 AM 80.1 °F 85.8 °F 77.0 °F 90% 29.87 in 10.0 mi Calm Calm - N/A   Scattered Clouds
3:53 AM 80.6 °F 87.1 °F 77.0 °F 89% 29.87 in 10.0 mi North 3.5 mph - N/A   Partly Cloudy
4:53 AM 80.1 °F 85.8 °F 77.0 °F 90% 29.87 in 10.0 mi NNW 3.5 mph - N/A   Scattered Clouds
5:53 AM 80.1 °F 86.4 °F 78.1 °F 94% 29.89 in 10.0 mi NW 4.6 mph - 0.00 in Rain Light Rain
6:53 AM 80.1 °F 85.4 °F 75.9 °F 87% 29.90 in 10.0 mi West 5.8 mph - 0.00 in   Mostly Cloudy
7:53 AM 80.1 °F 85.4 °F 75.9 °F 87% 29.90 in 10.0 mi NW 4.6 mph - N/A   Mostly Cloudy
8:53 AM 79.0 °F - 75.9 °F 90% 29.92 in 5.0 mi South 8.1 mph - 0.00 in Rain Rain
9:33 AM 81.0 °F 87.9 °F 77.0 °F 88% 29.91 in 10.0 mi Calm Calm - 0.03 in   Mostly Cloudy
9:53 AM 82.0 °F 90.2 °F 77.0 °F 85% 29.93 in 10.0 mi South 3.5 mph - 0.03 in   Mostly Cloudy
10:53 AM 82.9 °F 92.8 °F 78.1 °F 85% 29.94 in 10.0 mi Calm Calm - N/A   Mostly Cloudy
11:53 AM 84.0 °F 93.7 °F 77.0 °F 79% 29.94 in 10.0 mi SSE 5.8 mph - N/A   Mostly Cloudy
12:53 PM 84.0 °F 93.7 °F 77.0 °F 79% 29.92 in 10.0 mi South 11.5 mph - N/A   Mostly Cloudy
1:47 PM 84.2 °F 96.1 °F 78.8 °F 84% 29.90 in 7.0 mi South 8.1 mph - 0.01 in Rain Light Rain
1:53 PM 84.0 °F 94.8 °F 78.1 °F 82% 29.90 in 10.0 mi South 10.4 mph - 0.01 in   Mostly Cloudy
2:30 PM 84.9 °F 93.3 °F 75.0 °F 72% 29.90 in 10.0 mi SSW 11.5 mph - N/A   Mostly Cloudy
2:53 PM 87.1 °F 96.3 °F 75.0 °F 67% 29.90 in 10.0 mi SSW 11.5 mph - N/A   Mostly Cloudy
3:53 PM 88.0 °F 98.5 °F 75.9 °F 67% 29.88 in 10.0 mi SE 13.8 mph - N/A   Mostly Cloudy
4:06 PM 86.0 °F 95.1 °F 75.0 °F 70% 29.88 in 10.0 mi SE 12.7 mph - N/A   Overcast
4:11 PM 86.0 °F 93.8 °F 73.9 °F 67% 29.88 in 10.0 mi SSE 11.5 mph - N/A Thunderstorm Thunderstorm
4:31 PM 80.1 °F 83.8 °F 72.0 °F 76% 29.90 in 2.5 mi West 11.5 mph 19.6 mph 0.00 in Rain , Thunderstorm Heavy Thunderstorms and Rain
4:34 PM 78.1 °F - 71.1 °F 79% 29.91 in 1.0 mi Variable 6.9 mph 19.6 mph 0.10 in Rain , Thunderstorm Heavy Thunderstorms and Rain
4:53 PM 75.9 °F - 72.0 °F 87% 29.88 in 1.5 mi NE 9.2 mph - 0.98 in Rain , Thunderstorm Heavy Thunderstorms and Rain
5:00 PM 75.9 °F - 72.0 °F 87% 29.89 in 3.0 mi ENE 4.6 mph - 0.13 in Rain , Thunderstorm Heavy Thunderstorms and Rain
5:24 PM 75.9 °F - 73.0 °F 91% 29.89 in 10.0 mi ESE 12.7 mph - 0.20 in Rain , Thunderstorm Light Thunderstorms and Rain
5:40 PM 75.9 °F - 73.0 °F 91% 29.90 in 10.0 mi ESE 10.4 mph - 0.20 in Rain , Thunderstorm Light Thunderstorms and Rain
5:53 PM 77.0 °F - 73.0 °F 88% 29.89 in 10.0 mi East 9.2 mph - 0.20 in Thunderstorm Thunderstorm
6:29 PM 75.0 °F - 72.0 °F 90% 29.89 in 10.0 mi SE 8.1 mph - 0.03 in Rain , Thunderstorm Light Thunderstorms and Rain
6:53 PM 75.0 °F - 72.0 °F 90% 29.88 in 10.0 mi SE 10.4 mph - 0.05 in Rain , Thunderstorm Light Thunderstorms and Rain
7:53 PM 75.9 °F - 72.0 °F 87% 29.91 in 10.0 mi South 5.8 mph - 0.01 in Rain , Thunderstorm Light Thunderstorms and Rain
8:11 PM 77.0 °F - 73.0 °F 88% 29.91 in 10.0 mi South 8.1 mph - 0.00 in Rain Light Rain
8:53 PM 75.0 °F - 73.0 °F 94% 29.90 in 10.0 mi SW 6.9 mph - 0.03 in Rain Light Rain
9:53 PM 73.9 °F - 72.0 °F 93% 29.93 in 10.0 mi South 8.1 mph - 0.00 in   Overcast
10:53 PM 73.9 °F - 71.1 °F 91% 29.96 in 10.0 mi South 8.1 mph - 0.01 in Rain Light Rain
11:53 PM 73.9 °F - 72.0 °F 93% 29.95 in 10.0 mi South 8.1 mph - 0.08 in Rain Rain